| time (UTC) | temp C | wind direction | speed KPH | gust KPH | rain 1hr cm | rain 24hr cm | rain mn cm | humidity % | barometer mb |
| 20260503025512 | 8 | 0 | 0.0 | 0.0 | 0.00 | 0.08 | 0.08 | 87 | 1010.1 |
| 20260503025013 | 8 | 0 | 0.0 | 0.0 | 0.00 | 0.08 | 0.08 | 87 | 1010.2 |
| 20260503024529 | 8 | 0 | 0.0 | 0.0 | 0.00 | 0.08 | 0.08 | 87 | 1010.2 |
| 20260503024013 | 8 | 0 | 0.0 | 0.0 | 0.00 | 0.08 | 0.08 | 87 | 1010.1 |
| 20260503023517 | 8 | 0 | 0.0 | 0.0 | 0.00 | 0.08 | 0.08 | 87 | 1010.2 |
| 20260503023032 | 8 | 0 | 0.0 | 0.0 | 0.00 | 0.08 | 0.08 | 87 | 1010.3 |
| 20260503022513 | 8 | 0 | 0.0 | 0.0 | 0.00 | 0.08 | 0.08 | 87 | 1010.3 |
| 20260503022013 | 8 | 0 | 0.0 | 0.0 | 0.00 | 0.08 | 0.08 | 87 | 1010.3 |
| 20260503021540 | 8 | 0 | 0.0 | 0.0 | 0.00 | 0.08 | 0.08 | 87 | 1010.3 |
| 20260503021015 | 8 | 0 | 0.0 | 0.0 | 0.00 | 0.08 | 0.08 | 86 | 1010.3 |
| 20260503020518 | 8 | 0 | 0.0 | 0.0 | 0.00 | 0.08 | 0.08 | 86 | 1010.4 |
| 20260503020030 | 8 | 0 | 0.0 | 0.0 | 0.00 | 0.08 | 0.08 | 86 | 1010.3 |
| 20260503015514 | 8 | 0 | 0.0 | 0.0 | 0.00 | 0.08 | 0.08 | 86 | 1010.4 |
| 20260503015014 | 8 | 0 | 0.0 | 0.0 | 0.00 | 0.08 | 0.08 | 86 | 1010.6 |
| 20260503014532 | 8 | 0 | 0.0 | 0.0 | 0.00 | 0.08 | 0.08 | 86 | 1010.7 |
| 20260503014014 | 8 | 0 | 0.0 | 0.0 | 0.00 | 0.08 | 0.08 | 86 | 1010.7 |
| 20260503013515 | 9 | 0 | 0.0 | 0.0 | 0.00 | 0.08 | 0.08 | 86 | 1010.6 |
| 20260503013032 | 9 | 0 | 0.0 | 0.0 | 0.00 | 0.08 | 0.08 | 86 | 1010.7 |
| 20260503012515 | 9 | 0 | 0.0 | 0.0 | 0.00 | 0.08 | 0.08 | 86 | 1010.7 |
| 20260503012019 | 9 | 0 | 0.0 | 0.0 | 0.00 | 0.08 | 0.08 | 86 | 1010.7 |
| 20260503011529 | 9 | 0 | 0.0 | 0.0 | 0.00 | 0.08 | 0.08 | 86 | 1010.6 |
| 20260503011014 | 9 | 0 | 0.0 | 0.0 | 0.00 | 0.08 | 0.08 | 85 | 1010.6 |
| 20260503010512 | 9 | 0 | 0.0 | 0.0 | 0.00 | 0.08 | 0.08 | 85 | 1010.5 |
| 20260503010031 | 9 | 0 | 0.0 | 0.0 | 0.00 | 0.08 | 0.08 | 85 | 1010.6 |
| 20260503005517 | 9 | 0 | 0.0 | 1.6 | 0.00 | 0.08 | 0.08 | 85 | 1010.4 |
| 20260503005014 | 9 | 0 | 0.0 | 1.6 | 0.00 | 0.08 | 0.08 | 85 | 1010.6 |
| 20260503004555 | 9 | 0 | 0.0 | 1.6 | 0.00 | 0.08 | 0.08 | 85 | 1010.6 |
| 20260503004018 | 9 | 0 | 0.0 | 1.6 | 0.00 | 0.08 | 0.08 | 85 | 1010.4 |
| 20260503003513 | 9 | 0 | 0.0 | 1.6 | 0.00 | 0.08 | 0.08 | 85 | 1010.4 |
| 20260503003030 | 9 | 0 | 0.0 | 1.6 | 0.00 | 0.08 | 0.08 | 85 | 1010.3 |
| 20260503002514 | 9 | 0 | 0.0 | 0.0 | 0.00 | 0.08 | 0.08 | 85 | 1010.3 |
| 20260503002015 | 9 | 0 | 0.0 | 3.2 | 0.00 | 0.08 | 0.08 | 85 | 1010.3 |
| 20260503001532 | 9 | 0 | 0.0 | 3.2 | 0.00 | 0.08 | 0.08 | 84 | 1010.3 |
| 20260503001016 | 10 | 0 | 0.0 | 3.2 | 0.00 | 0.08 | 0.08 | 84 | 1010.3 |
| 20260503000514 | 10 | 0 | 0.0 | 3.2 | 0.00 | 0.08 | 0.08 | 84 | 1010.2 |
| 20260503000033 | 10 | 0 | 0.0 | 3.2 | 0.00 | 0.08 | 0.08 | 84 | 1010.3 |
| 20260502235514 | 10 | 0 | 0.0 | 1.6 | 0.00 | 0.08 | 0.08 | 84 | 1010.2 |
| 20260502235014 | 10 | 0 | 0.0 | 3.2 | 0.00 | 0.08 | 0.08 | 84 | 1010.3 |
| 20260502234531 | 10 | 0 | 0.0 | 3.2 | 0.00 | 0.08 | 0.08 | 84 | 1010.2 |
| 20260502234014 | 10 | 0 | 0.0 | 3.2 | 0.00 | 0.08 | 0.08 | 84 | 1010.3 |
| 20260502233514 | 10 | 0 | 0.0 | 3.2 | 0.00 | 0.08 | 0.08 | 84 | 1010.4 |
| 20260502233031 | 10 | 0 | 0.0 | 1.6 | 0.00 | 0.08 | 0.08 | 84 | 1010.4 |
| 20260502232514 | 10 | 0 | 0.0 | 3.2 | 0.00 | 0.08 | 0.08 | 84 | 1010.4 |
| 20260502232017 | 10 | 0 | 0.0 | 3.2 | 0.00 | 0.08 | 0.08 | 83 | 1010.4 |
| 20260502231532 | 10 | 0 | 0.0 | 3.2 | 0.00 | 0.08 | 0.08 | 83 | 1010.4 |
| 20260502231017 | 10 | 0 | 0.0 | 4.8 | 0.00 | 0.08 | 0.08 | 83 | 1010.4 |
| 20260502230514 | 10 | 217 | 0.0 | 4.8 | 0.00 | 0.08 | 0.08 | 83 | 1010.5 |
| 20260502230030 | 10 | 0 | 0.0 | 4.8 | 0.00 | 0.08 | 0.08 | 83 | 1010.5 |
| 20260502225513 | 10 | 150 | 0.0 | 6.4 | 0.00 | 0.08 | 0.08 | 83 | 1010.5 |
| 20260502225010 | 10 | 0 | 1.6 | 6.4 | 0.00 | 0.08 | 0.08 | 83 | 1010.4 |
| 20260502224532 | 10 | 146 | 1.6 | 6.4 | 0.00 | 0.08 | 0.08 | 83 | 1010.3 |
| 20260502224011 | 10 | 150 | 0.0 | 4.8 | 0.00 | 0.08 | 0.08 | 83 | 1010.4 |
| 20260502223514 | 10 | 0 | 0.0 | 3.2 | 0.00 | 0.08 | 0.08 | 83 | 1010.3 |
| 20260502223035 | 10 | 0 | 0.0 | 4.8 | 0.00 | 0.08 | 0.08 | 83 | 1010.3 |
| 20260502222515 | 10 | 0 | 0.0 | 4.8 | 0.00 | 0.08 | 0.08 | 82 | 1010.2 |
| 20260502222014 | 10 | 0 | 1.6 | 6.4 | 0.00 | 0.08 | 0.08 | 82 | 1010.3 |
| 20260502221529 | 10 | 0 | 0.0 | 6.4 | 0.00 | 0.08 | 0.08 | 81 | 1010.3 |
| 20260502221014 | 10 | 245 | 0.0 | 6.4 | 0.00 | 0.08 | 0.08 | 81 | 1010.2 |
| 20260502220511 | 10 | 166 | 1.6 | 6.4 | 0.00 | 0.08 | 0.08 | 81 | 1010.3 |
| 20260502220036 | 10 | 157 | 0.0 | 6.4 | 0.00 | 0.08 | 0.08 | 81 | 1010.3 |
| 20260502215514 | 10 | 0 | 0.0 | 12.9 | 0.00 | 0.08 | 0.08 | 81 | 1010.2 |
| 20260502215014 | 10 | 139 | 1.6 | 12.9 | 0.00 | 0.08 | 0.08 | 81 | 1010.1 |
| 20260502214535 | 10 | 180 | 1.6 | 11.3 | 0.00 | 0.08 | 0.08 | 80 | 1010.2 |
| 20260502214014 | 11 | 140 | 1.6 | 9.7 | 0.00 | 0.08 | 0.08 | 80 | 1010.2 |
| 20260502213511 | 11 | 103 | 1.6 | 9.7 | 0.00 | 0.08 | 0.08 | 81 | 1010.3 |
| 20260502213032 | 11 | 156 | 1.6 | 4.8 | 0.00 | 0.08 | 0.08 | 81 | 1010.2 |
| 20260502212511 | 11 | 123 | 0.0 | 6.4 | 0.00 | 0.08 | 0.08 | 81 | 1010.3 |
| 20260502212020 | 10 | 139 | 0.0 | 9.7 | 0.00 | 0.08 | 0.08 | 81 | 1010.1 |
| 20260502211543 | 10 | 0 | 0.0 | 9.7 | 0.00 | 0.08 | 0.08 | 81 | 1010.3 |
| 20260502211013 | 10 | 0 | 3.2 | 14.5 | 0.00 | 0.08 | 0.08 | 80 | 1010.4 |
| 20260502210513 | 10 | 181 | 1.6 | 14.5 | 0.00 | 0.08 | 0.08 | 81 | 1010.3 |
| 20260502210031 | 10 | 200 | 1.6 | 14.5 | 0.00 | 0.08 | 0.08 | 81 | 1010.2 |
| 20260502205514 | 10 | 207 | 1.6 | 14.5 | 0.00 | 0.08 | 0.08 | 81 | 1010.2 |
| 20260502205014 | 10 | 159 | 1.6 | 9.7 | 0.00 | 0.08 | 0.08 | 81 | 1010.1 |
| 20260502204531 | 11 | 187 | 0.0 | 12.9 | 0.00 | 0.08 | 0.08 | 81 | 1010.1 |
| 20260502204014 | 11 | 209 | 3.2 | 12.9 | 0.00 | 0.08 | 0.08 | 81 | 1010.2 |
| 20260502203514 | 11 | 163 | 0.0 | 9.7 | 0.00 | 0.08 | 0.08 | 81 | 1010.3 |
| 20260502203031 | 11 | 0 | 1.6 | 11.3 | 0.00 | 0.08 | 0.08 | 80 | 1010.3 |
| 20260502202511 | 11 | 101 | 0.0 | 11.3 | 0.00 | 0.08 | 0.08 | 80 | 1010.4 |
| 20260502202014 | 11 | 186 | 4.8 | 11.3 | 0.00 | 0.08 | 0.08 | 80 | 1010.4 |
| 20260502201532 | 11 | 0 | 1.6 | 9.7 | 0.03 | 0.08 | 0.08 | 80 | 1010.4 |
| 20260502201014 | 11 | 103 | 3.2 | 12.9 | 0.03 | 0.08 | 0.08 | 80 | 1010.5 |
| 20260502200516 | 11 | 234 | 3.2 | 16.1 | 0.03 | 0.08 | 0.08 | 81 | 1010.4 |
| 20260502200032 | 11 | 67 | 1.6 | 16.1 | 0.03 | 0.08 | 0.08 | 81 | 1010.4 |
| 20260502195516 | 11 | 134 | 6.4 | 16.1 | 0.03 | 0.08 | 0.08 | 80 | 1010.6 |
| 20260502195013 | 11 | 126 | 3.2 | 14.5 | 0.03 | 0.08 | 0.08 | 81 | 1010.6 |
| 20260502194532 | 11 | 186 | 1.6 | 9.7 | 0.03 | 0.08 | 0.08 | 81 | 1010.6 |
| 20260502194017 | 11 | 97 | 0.0 | 12.9 | 0.03 | 0.08 | 0.08 | 81 | 1010.8 |
| 20260502193514 | 11 | 74 | 3.2 | 16.1 | 0.03 | 0.08 | 0.08 | 80 | 1011.0 |
| 20260502193034 | 11 | 148 | 1.6 | 16.1 | 0.03 | 0.08 | 0.08 | 80 | 1010.9 |
| 20260502192515 | 11 | 98 | 1.6 | 14.5 | 0.03 | 0.08 | 0.08 | 80 | 1010.9 |
| 20260502192013 | 10 | 192 | 1.6 | 14.5 | 0.00 | 0.05 | 0.05 | 79 | 1011.1 |
| 20260502191531 | 11 | 177 | 4.8 | 14.5 | 0.00 | 0.05 | 0.05 | 78 | 1011.2 |
| 20260502191022 | 11 | 220 | 1.6 | 6.4 | 0.00 | 0.05 | 0.05 | 81 | 1011.1 |
| 20260502190514 | 11 | 0 | 1.6 | 11.3 | 0.00 | 0.05 | 0.05 | 81 | 1011.3 |
| 20260502190033 | 11 | 225 | 3.2 | 14.5 | 0.00 | 0.05 | 0.05 | 80 | 1011.2 |
| 20260502185518 | 11 | 172 | 3.2 | 14.5 | 0.00 | 0.05 | 0.05 | 79 | 1011.1 |
| 20260502185014 | 11 | 150 | 1.6 | 14.5 | 0.03 | 0.05 | 0.05 | 80 | 1011.2 |
| 20260502184543 | 11 | 225 | 1.6 | 12.9 | 0.03 | 0.05 | 0.05 | 80 | 1011.2 |
| 20260502184021 | 11 | 182 | 4.8 | 12.9 | 0.05 | 0.05 | 0.05 | 80 | 1011.1 |
| 20260502183515 | 11 | 228 | 3.2 | 11.3 | 0.05 | 0.05 | 0.05 | 83 | 1011.2 |
| 20260502183030 | 11 | 171 | 1.6 | 8.0 | 0.05 | 0.05 | 0.05 | 85 | 1011.1 |
| 20260502182516 | 10 | 155 | 0.0 | 3.2 | 0.05 | 0.05 | 0.05 | 86 | 1011.1 |
| 20260502182013 | 10 | 0 | 0.0 | 1.6 | 0.05 | 0.05 | 0.05 | 86 | 1011.3 |
| 20260502181532 | 10 | 0 | 0.0 | 1.6 | 0.05 | 0.05 | 0.05 | 85 | 1011.4 |
| 20260502181017 | 10 | 0 | 0.0 | 6.4 | 0.05 | 0.05 | 0.05 | 85 | 1011.5 |
| 20260502180514 | 10 | 0 | 0.0 | 11.3 | 0.05 | 0.05 | 0.05 | 85 | 1011.4 |
| 20260502170514 | 13 | 79 | 3.2 | 17.7 | 0.00 | 0.00 | 0.00 | 70 | 1011.6 |
| 20260502164016 | 14 | 77 | 1.6 | 11.3 | 0.00 | 0.00 | 0.00 | 61 | 1011.2 |
| 20260502163513 | 14 | 94 | 1.6 | 14.5 | 0.00 | 0.00 | 0.00 | 62 | 1011.3 |
| 20260502163032 | 14 | 122 | 3.2 | 22.5 | 0.00 | 0.00 | 0.00 | 63 | 1011.2 |
| 20260502162514 | 14 | 179 | 4.8 | 22.5 | 0.00 | 0.00 | 0.00 | 65 | 1011.1 |
| 20260502162014 | 13 | 147 | 1.6 | 12.9 | 0.00 | 0.00 | 0.00 | 65 | 1011.2 |
| 20260502161529 | 13 | 130 | 1.6 | 6.4 | 0.00 | 0.00 | 0.00 | 67 | 1011.2 |
| 20260502161014 | 13 | 0 | 0.0 | 8.0 | 0.00 | 0.00 | 0.00 | 67 | 1011.4 |
| 20260502160516 | 13 | 178 | 1.6 | 12.9 | 0.00 | 0.00 | 0.00 | 66 | 1011.4 |
| 20260502152014 | 12 | 0 | 0.0 | 4.8 | 0.00 | 0.00 | 0.00 | 73 | 1011.8 |
| 20260502151532 | 12 | 0 | 1.6 | 4.8 | 0.00 | 0.00 | 0.00 | 73 | 1012.0 |
| 20260502151015 | 12 | 153 | 1.6 | 6.4 | 0.00 | 0.00 | 0.00 | 73 | 1011.9 |
| 20260502150514 | 12 | 0 | 1.6 | 12.9 | 0.00 | 0.00 | 0.00 | 72 | 1011.6 |
| 20260502130514 | 11 | 281 | 1.6 | 6.4 | 0.00 | 0.00 | 0.00 | 76 | 1012.8 |
| 20260502123514 | 10 | 185 | 0.0 | 6.4 | 0.00 | 0.00 | 0.00 | 77 | 1012.8 |
| 20260502123032 | 10 | 0 | 0.0 | 11.3 | 0.00 | 0.00 | 0.00 | 77 | 1012.4 |
| 20260502122515 | 10 | 175 | 1.6 | 11.3 | 0.00 | 0.00 | 0.00 | 77 | 1012.4 |
| 20260502122020 | 11 | 179 | 1.6 | 16.1 | 0.00 | 0.00 | 0.00 | 76 | 1012.5 |
| 20260502121530 | 10 | 198 | 3.2 | 16.1 | 0.00 | 0.00 | 0.00 | 78 | 1012.5 |
| 20260502121015 | 10 | 0 | 3.2 | 12.9 | 0.00 | 0.00 | 0.00 | 78 | 1012.3 |
| 20260502120514 | 10 | 167 | 3.2 | 11.3 | 0.00 | 0.00 | 0.00 | 77 | 1012.3 |
| 20260502115511 | 10 | 0 | 1.6 | 9.7 | 0.00 | 0.00 | 0.00 | 78 | 1012.2 |
| 20260502115014 | 10 | 0 | 0.0 | 9.7 | 0.00 | 0.00 | 0.00 | 79 | 1012.1 |
| 20260502114530 | 9 | 0 | 1.6 | 8.0 | 0.00 | 0.00 | 0.00 | 80 | 1011.9 |
| 20260502114010 | 8 | 0 | 0.0 | 4.8 | 0.00 | 0.00 | 0.00 | 80 | 1012.0 |
| 20260502113514 | 8 | 142 | 0.0 | 6.4 | 0.00 | 0.00 | 0.00 | 80 | 1011.9 |
| 20260502113028 | 8 | 182 | 0.0 | 6.4 | 0.00 | 0.00 | 0.00 | 80 | 1012.0 |
| 20260502112511 | 8 | 0 | 0.0 | 4.8 | 0.00 | 0.00 | 0.00 | 81 | 1011.9 |
| 20260502112011 | 8 | 0 | 0.0 | 4.8 | 0.00 | 0.00 | 0.00 | 81 | 1011.9 |
| 20260502111532 | 8 | 141 | 1.6 | 4.8 | 0.00 | 0.00 | 0.00 | 81 | 1011.9 |
| 20260502111012 | 8 | 0 | 0.0 | 3.2 | 0.00 | 0.00 | 0.00 | 81 | 1012.1 |
| 20260502110514 | 8 | 0 | 0.0 | 1.6 | 0.00 | 0.00 | 0.00 | 82 | 1012.2 |
| 20260502110030 | 8 | 0 | 0.0 | 1.6 | 0.00 | 0.00 | 0.00 | 82 | 1012.1 |
| 20260502105517 | 8 | 161 | 0.0 | 1.6 | 0.00 | 0.00 | 0.00 | 82 | 1011.9 |
| 20260502105013 | 7 | 0 | 0.0 | 1.6 | 0.00 | 0.00 | 0.00 | 82 | 1012.0 |
| 20260502104540 | 7 | 0 | 0.0 | 0.0 | 0.00 | 0.00 | 0.00 | 82 | 1011.9 |
| 20260502104012 | 7 | 0 | 0.0 | 3.2 | 0.00 | 0.00 | 0.00 | 82 | 1011.8 |
| 20260502103513 | 7 | 0 | 0.0 | 3.2 | 0.00 | 0.00 | 0.00 | 83 | 1011.8 |
| 20260502103041 | 7 | 159 | 0.0 | 4.8 | 0.00 | 0.00 | 0.00 | 83 | 1011.7 |
| 20260502102511 | 7 | 0 | 0.0 | 4.8 | 0.00 | 0.00 | 0.00 | 83 | 1011.8 |
| 20260502102010 | 7 | 0 | 0.0 | 4.8 | 0.00 | 0.00 | 0.00 | 84 | 1011.6 |
| 20260502101541 | 7 | 0 | 0.0 | 4.8 | 0.00 | 0.00 | 0.00 | 84 | 1011.7 |
| 20260502101014 | 6 | 173 | 0.0 | 3.2 | 0.00 | 0.00 | 0.00 | 84 | 1011.8 |
| 20260502100513 | 6 | 172 | 0.0 | 3.2 | 0.00 | 0.00 | 0.00 | 85 | 1011.8 |
| 20260502091012 | 6 | 0 | 0.0 | 0.0 | 0.00 | 0.00 | 0.00 | 85 | 1011.6 |
| 20260502090513 | 6 | 0 | 0.0 | 0.0 | 0.00 | 0.00 | 0.00 | 85 | 1011.6 |
| 20260502071528 | 6 | 0 | 0.0 | 0.0 | 0.00 | 0.00 | 0.00 | 82 | 1011.5 |
| 20260502071010 | 6 | 0 | 0.0 | 0.0 | 0.00 | 0.00 | 0.00 | 82 | 1011.5 |
| 20260502070511 | 6 | 0 | 0.0 | 0.0 | 0.00 | 0.00 | 0.00 | 82 | 1011.5 |
| 20260502070028 | 6 | 0 | 0.0 | 0.0 | 0.00 | 0.00 | 0.00 | 81 | 1011.5 |
| 20260502065510 | 6 | 0 | 0.0 | 0.0 | 0.00 | 0.00 | 0.00 | 82 | 1011.6 |
| 20260502065017 | 6 | 0 | 0.0 | 0.0 | 0.00 | 0.00 | 0.00 | 82 | 1011.5 |
| 20260502064537 | 6 | 0 | 0.0 | 0.0 | 0.00 | 0.00 | 0.00 | 82 | 1011.5 |
| 20260502064010 | 6 | 0 | 0.0 | 0.0 | 0.00 | 0.00 | 0.00 | 82 | 1011.6 |
| 20260502063512 | 6 | 0 | 0.0 | 0.0 | 0.00 | 0.00 | 0.00 | 82 | 1011.6 |
| 20260502063032 | 6 | 0 | 0.0 | 0.0 | 0.00 | 0.00 | 0.00 | 82 | 1011.7 |
| 20260502062514 | 6 | 0 | 0.0 | 0.0 | 0.00 | 0.00 | 0.00 | 82 | 1011.6 |
| 20260502062016 | 6 | 0 | 0.0 | 0.0 | 0.00 | 0.00 | 0.00 | 82 | 1011.6 |
| 20260502061534 | 6 | 0 | 0.0 | 0.0 | 0.00 | 0.00 | 0.00 | 82 | 1011.7 |
| 20260502061013 | 6 | 0 | 0.0 | 0.0 | 0.00 | 0.00 | 0.00 | 82 | 1011.7 |
| 20260502060513 | 6 | 0 | 0.0 | 0.0 | 0.00 | 0.00 | 0.00 | 81 | 1011.8 |
| 20260502060031 | 6 | 0 | 0.0 | 0.0 | 0.00 | 0.00 | 0.00 | 81 | 1011.7 |
| 20260502055513 | 6 | 0 | 0.0 | 0.0 | 0.00 | 0.00 | 0.00 | 80 | 1011.7 |
| 20260502055010 | 6 | 0 | 0.0 | 0.0 | 0.00 | 0.00 | 0.00 | 80 | 1011.8 |
| 20260502054532 | 6 | 0 | 0.0 | 0.0 | 0.00 | 0.00 | 0.00 | 80 | 1011.8 |
| 20260502054016 | 6 | 0 | 0.0 | 0.0 | 0.00 | 0.00 | 0.00 | 79 | 1011.9 |
| 20260502053510 | 6 | 0 | 0.0 | 0.0 | 0.00 | 0.00 | 0.00 | 79 | 1011.9 |
| 20260502053030 | 6 | 0 | 0.0 | 0.0 | 0.00 | 0.00 | 0.00 | 78 | 1011.9 |
| 20260502052514 | 6 | 0 | 0.0 | 0.0 | 0.00 | 0.00 | 0.00 | 78 | 1011.9 |
| 20260502052010 | 6 | 0 | 0.0 | 0.0 | 0.00 | 0.00 | 0.00 | 78 | 1011.7 |
| 20260502051535 | 6 | 0 | 0.0 | 0.0 | 0.00 | 0.00 | 0.00 | 78 | 1011.8 |
| 20260502051009 | 6 | 0 | 0.0 | 0.0 | 0.00 | 0.00 | 0.00 | 78 | 1011.9 |
| 20260502050510 | 6 | 0 | 0.0 | 0.0 | 0.00 | 0.00 | 0.00 | 77 | 1011.9 |
| 20260502050030 | 6 | 0 | 0.0 | 0.0 | 0.00 | 0.00 | 0.00 | 77 | 1011.8 |
| 20260502045514 | 6 | 0 | 0.0 | 0.0 | 0.00 | 0.00 | 0.00 | 77 | 1011.9 |
| 20260502045014 | 6 | 0 | 0.0 | 0.0 | 0.00 | 0.00 | 0.00 | 78 | 1011.8 |
| 20260502044532 | 6 | 0 | 0.0 | 0.0 | 0.00 | 0.00 | 0.00 | 77 | 1011.9 |
| 20260502044013 | 6 | 0 | 0.0 | 0.0 | 0.00 | 0.00 | 0.00 | 77 | 1012.0 |
| 20260502043510 | 6 | 0 | 0.0 | 0.0 | 0.00 | 0.00 | 0.00 | 77 | 1012.1 |
| 20260502043031 | 6 | 0 | 0.0 | 0.0 | 0.00 | 0.00 | 0.00 | 76 | 1012.0 |
| 20260502042510 | 6 | 0 | 0.0 | 0.0 | 0.00 | 0.00 | 0.00 | 76 | 1012.0 |
| 20260502042013 | 6 | 0 | 0.0 | 0.0 | 0.00 | 0.00 | 0.00 | 76 | 1011.9 |
| 20260502041535 | 7 | 0 | 0.0 | 0.0 | 0.00 | 0.00 | 0.00 | 76 | 1012.0 |
| 20260502041013 | 7 | 0 | 0.0 | 0.0 | 0.00 | 0.00 | 0.00 | 76 | 1012.0 |
| 20260502040515 | 7 | 0 | 0.0 | 0.0 | 0.00 | 0.00 | 0.00 | 76 | 1012.0 |
| 20260502040030 | 7 | 0 | 0.0 | 0.0 | 0.00 | 0.00 | 0.00 | 76 | 1011.9 |
| 20260502035512 | 7 | 0 | 0.0 | 0.0 | 0.00 | 0.00 | 0.00 | 75 | 1012.0 |
| 20260502035010 | 7 | 0 | 0.0 | 0.0 | 0.00 | 0.00 | 0.00 | 74 | 1011.9 |
| 20260502034533 | 7 | 0 | 0.0 | 0.0 | 0.00 | 0.00 | 0.00 | 75 | 1011.8 |
| 20260502034010 | 7 | 0 | 0.0 | 0.0 | 0.00 | 0.00 | 0.00 | 75 | 1011.9 |
| 20260502033514 | 7 | 0 | 0.0 | 0.0 | 0.00 | 0.00 | 0.00 | 73 | 1011.8 |
| 20260502033031 | 7 | 0 | 0.0 | 0.0 | 0.00 | 0.00 | 0.00 | 73 | 1011.9 |
| 20260502032510 | 7 | 0 | 0.0 | 0.0 | 0.00 | 0.00 | 0.00 | 73 | 1011.9 |
| 20260502032013 | 7 | 0 | 0.0 | 0.0 | 0.00 | 0.00 | 0.00 | 73 | 1011.9 |
| 20260502031532 | 7 | 0 | 0.0 | 0.0 | 0.00 | 0.00 | 0.00 | 72 | 1011.8 |
| 20260502031013 | 7 | 0 | 0.0 | 0.0 | 0.00 | 0.00 | 0.00 | 72 | 1011.7 |
| 20260502030516 | 7 | 0 | 0.0 | 0.0 | 0.00 | 0.00 | 0.00 | 73 | 1011.7 |
| 20260502030032 | 7 | 0 | 0.0 | 0.0 | 0.00 | 0.00 | 0.00 | 72 | 1011.8 |